Weather History for Naples, Italy

Change the Weather History Date:

Tuesday, March 4, 2014

  Actual Average Record
Temperature  
Mean Temperature 52 °F -  
Max Temperature 57 °F 60 °F 71 °F (2002)
Min Temperature 46 °F 44 °F 37 °F (2013)
Degree Days  
Heating Degree Days 14    
Growing Degree Days 2 (Base 50)    
Moisture  
Dew Point 43 °F    
Average Humidity 75    
Maximum Humidity 94    
Minimum Humidity 43    
Precipitation  
Precipitation 0.03 in 0.11 in - ()
Sea Level Pressure  
Sea Level Pressure 29.38 in    
Wind  
Wind Speed 7 mph ()    
Max Wind Speed 16 mph    
Max Gust Speed 17 mph    
Visibility 6.6 miles    
Events Rain    
Averages and records for this station are not official NWS values.
T = Trace of Precipitation, MM = Missing Value Source: Averaged Metar Reports

Daily Weather History Graph

Daily Weather History Graph

Search for Another Location

Airport:

Trip Planner

Search our weather history database for the weather conditions in past years. The results will help you decide how hot, cold, wet, or windy it might be!

Date:

Astronomy

Mar. 04, 2014 Rise Set
Actual Time 6:32 AM CET 5:57 PM CET
Civil Twilight 6:05 AM CET 6:24 PM CET
Nautical Twilight 5:33 AM CET 6:56 PM CET
Astronomical Twilight 5:01 AM CET 7:28 PM CET
Moon 8:06 AM CET (3/4) 9:48 PM CET (3/4)
Length of Visible Light 12h 19m
Length of Day
11h 24m
Waxing Crescent, 13% of the Moon is Illuminated
Mar 4
Waxing Crescent
Mar 8
First Quarter
Mar 16
Full
Mar 24
Last Quarter
Mar 30
New

Hourly Weather History & Observations

Time (CET) Temp. Windchill Dew Point Humidity Pressure Visibility Wind Dir Wind Speed Gust Speed Precip Events Conditions
12:20 AM 51.8 °F - 44.6 °F 76% 29.33 in 6.2 mi SSE 5.8 mph - N/A   Drizzle
12:50 AM 51.8 °F - 46.4 °F 82% 29.33 in 4.3 mi SSE 8.1 mph - N/A Rain Light Rain
1:00 AM 51 °F - 47 °F 80% 29.33 in 4 mi SSE 9.2 mph - - Rain Light Rain
1:20 AM 50.0 °F - 48.2 °F 94% 29.30 in 4.3 mi SSE 8.1 mph - N/A Rain Rain
1:50 AM 50.0 °F - 44.6 °F 82% 29.33 in 5.0 mi Variable 11.5 mph - N/A Rain Light Rain
2:20 AM 50.0 °F - 44.6 °F 82% 29.33 in 5.0 mi SW 4.6 mph - N/A   Mostly Cloudy
2:50 AM 48.2 °F - 44.6 °F 87% 29.33 in 6.2 mi South 5.8 mph - N/A   Partly Cloudy
3:20 AM 50.0 °F - 46.4 °F 87% 29.33 in 5.0 mi SW 4.6 mph - N/A Rain Light Rain
3:50 AM 50.0 °F - 46.4 °F 87% 29.33 in 6.2 mi SSE 3.5 mph - N/A   Partly Cloudy
4:00 AM 49 °F - 46 °F 87% 29.33 in 6 mi South 3.5 mph - -   Scattered Clouds
4:20 AM 48.2 °F - 42.8 °F 82% 29.33 in 4.3 mi WSW 10.4 mph - N/A Rain Light Rain
4:50 AM 50.0 °F - 44.6 °F 82% 29.33 in 5.0 mi SW 5.8 mph 17.3 mph N/A Rain Light Rain
5:20 AM 50.0 °F - 42.8 °F 76% 29.33 in 6.2 mi SW 9.2 mph - N/A   Partly Cloudy
5:50 AM 50.0 °F - 41.0 °F 71% 29.33 in 6.2 mi SW 8.1 mph - N/A   Partly Cloudy
6:20 AM 50.0 °F - 42.8 °F 76% 29.33 in 6.2 mi SW 13.8 mph - N/A Rain Light Rain
6:50 AM 50.0 °F - 44.6 °F 82% 29.33 in 6.2 mi SW 8.1 mph - N/A Rain Light Rain
7:00 AM 50 °F - 43 °F 70% 29.34 in 6 mi SW 9.2 mph - - Rain Light Drizzle
7:20 AM 50.0 °F - 44.6 °F 82% 29.33 in 4.3 mi SSW 10.4 mph - N/A Rain Light Rain
7:50 AM 48.2 °F - 44.6 °F 87% 29.33 in 5.0 mi South 8.1 mph - N/A Rain Light Rain
8:20 AM 48.2 °F - 46.4 °F 93% 29.33 in 5.0 mi Variable 2.3 mph - N/A Rain Light Rain
8:50 AM 50.0 °F - 44.6 °F 82% 29.33 in 4.3 mi SW 13.8 mph - N/A Rain Light Rain
9:20 AM 53.6 °F - 46.4 °F 77% 29.33 in 6.2 mi SW 8.1 mph - N/A   Mostly Cloudy
9:50 AM 53.6 °F - 42.8 °F 67% 29.33 in 6.2 mi WSW 16.1 mph - N/A Rain Light Rain
10:00 AM 50 °F - 42 °F 66% 29.36 in 9 mi WNW 13.8 mph - -   Partly Cloudy
10:20 AM 50.0 °F - 42.8 °F 76% 29.36 in 6.2 mi WNW 10.4 mph - N/A Rain Light Rain
10:50 AM 51.8 °F - 44.6 °F 76% 29.36 in 6.2 mi NW 5.8 mph - N/A Rain Light Rain
11:20 AM 55.4 °F - 44.6 °F 67% 29.36 in 6.2 mi SSW 9.2 mph - N/A   Mostly Cloudy
11:50 AM 51.8 °F - 44.6 °F 76% 29.36 in 6.2 mi West 15.0 mph - N/A   Mostly Cloudy
12:20 PM 53.6 °F - 44.6 °F 72% 29.36 in 6.2 mi WNW 10.4 mph - N/A   Scattered Clouds
12:50 PM 55.4 °F - 42.8 °F 63% 29.36 in 6.2 mi SW 12.7 mph - N/A   Mostly Cloudy
1:00 PM 56 °F - 42 °F 48% 29.36 in 16 mi West 11.5 mph - -   Mostly Cloudy
1:20 PM 57.2 °F - 44.6 °F 63% 29.33 in 6.2 mi WSW 16.1 mph - N/A   Mostly Cloudy
1:50 PM 53.6 °F - 44.6 °F 72% 29.36 in 6.2 mi WSW 11.5 mph - N/A Rain Light Rain
2:20 PM 55.4 °F - 44.6 °F 67% 29.36 in 6.2 mi WSW 15.0 mph - N/A   Mostly Cloudy
2:50 PM 57.2 °F - 42.8 °F 59% 29.36 in 6.2 mi WSW 13.8 mph - N/A   Mostly Cloudy
3:20 PM 55.4 °F - 42.8 °F 63% 29.36 in 6.2 mi WSW 12.7 mph - N/A   Scattered Clouds
3:50 PM 55.4 °F - 37.4 °F 51% 29.36 in 6.2 mi SW 13.8 mph - N/A   Scattered Clouds
4:00 PM 56 °F - 40 °F 43% 29.38 in 16 mi SW 10.4 mph - -   Mostly Cloudy
4:20 PM 55.4 °F - 41.0 °F 58% 29.39 in 6.2 mi SW 9.2 mph - N/A   Scattered Clouds
4:50 PM 55.4 °F - 41.0 °F 58% 29.39 in 6.2 mi WSW 8.1 mph - N/A   Scattered Clouds
5:20 PM 51.8 °F - 41.0 °F 67% 29.39 in 6.2 mi WSW 5.8 mph - N/A   Scattered Clouds
5:50 PM 53.6 °F - 39.2 °F 58% 29.42 in 6.2 mi SSW 3.5 mph - N/A   Scattered Clouds
6:20 PM 53.6 °F - 41.0 °F 62% 29.42 in 6.2 mi Variable 2.3 mph - N/A   Scattered Clouds
6:50 PM 51.8 °F - 41.0 °F 67% 29.44 in 6.2 mi SSW 5.8 mph - N/A   Scattered Clouds
7:00 PM 50 °F - 43 °F 69% 29.46 in 16 mi South 9.2 mph - -   Mostly Cloudy
7:20 PM 48.2 °F - 42.8 °F 82% 29.44 in 6.2 mi East 3.5 mph - N/A Rain Light Rain
7:50 PM 48.2 °F - 42.8 °F 82% 29.44 in 6.2 mi North 3.5 mph - N/A Rain Light Rain
8:20 PM 46.4 °F 45.2 °F 42.8 °F 87% 29.44 in 6.2 mi ENE 3.5 mph - N/A Rain Light Rain
8:50 PM 46.4 °F 43.5 °F 42.8 °F 87% 29.47 in 6.2 mi East 5.8 mph - N/A   Scattered Clouds
9:20 PM 46.4 °F 44.3 °F 41.0 °F 81% 29.47 in 6.2 mi ENE 4.6 mph - N/A   Scattered Clouds
9:50 PM 46.4 °F 45.2 °F 41.0 °F 81% 29.47 in 6.2 mi ENE 3.5 mph - N/A   Scattered Clouds
10:00 PM 47 °F - 42 °F 75% 29.49 in 16 mi ENE 4.6 mph - -   Partly Cloudy
10:20 PM 48.2 °F - 42.8 °F 82% 29.47 in 6.2 mi NNE 4.6 mph - N/A   Scattered Clouds
10:50 PM 48.2 °F - 42.8 °F 82% 29.47 in 6.2 mi West 4.6 mph - N/A   Scattered Clouds
11:20 PM 48.2 °F - 44.6 °F 87% 29.50 in 6.2 mi West 5.8 mph - N/A Rain Light Rain
11:50 PM 48.2 °F - 42.8 °F 82% 29.50 in 6.2 mi Variable 2.3 mph - N/A Rain Light Rain